Weather History for New York Downtown Manhattan/w, NY

Change the Weather History Date:

Friday, December 27, 2013

  Actual Average (KNYC) Record (KNYC)
Temperature  
Mean Temperature 38 °F 34 °F  
Max Temperature 42 °F 40 °F 63 °F (1949)
Min Temperature 33 °F 29 °F 6 °F (1872)
Degree Days  
Heating Degree Days 28 31  
Month to date heating degree days 726  
Since 1 July heating degree days 1559  
Cooling Degree Days 0 0  
Month to date cooling degree days 0  
Year to date cooling degree days 1105  
Moisture  
Dew Point 23 °F    
Average Humidity 58    
Maximum Humidity 75    
Minimum Humidity 42    
Precipitation  
Precipitation 0.37 in 0.12 in 2.14 in (1947)
Month to date precipitation 3.54  
Year to date precipitation 49.48  
Snow  
Snow 0.00 in 0.20 in 7.80 in (2010)
Month to date snowfall 3.9  
Since 1 July snowfall 4.2  
Snow Depth -    
Sea Level Pressure  
Sea Level Pressure 30.33 in    
Wind  
Wind Speed 7 mph (West)    
Max Wind Speed 14 mph    
Max Gust Speed 43 mph    
Visibility 10 miles    
Events      
T = Trace of Precipitation, MM = Missing Value Source: NWS Daily Summary

Daily Weather History Graph

Daily Weather History Graph

Search for Another Location

Airport:

Trip Planner

Search our weather history database for the weather conditions in past years. The results will help you decide how hot, cold, wet, or windy it might be!

Date:

Astronomy

Dec. 27, 2013 Rise Set
Actual Time 7:19 AM EST 4:35 PM EST
Civil Twilight 6:48 AM EST 5:06 PM EST
Nautical Twilight 6:13 AM EST 5:40 PM EST
Astronomical Twilight 5:40 AM EST 6:14 PM EST
Moon 1:46 AM EST (12/27) 12:45 PM EST (12/27)
Length of Visible Light 10h 18m
Length of Day
9h 16m
Waning Crescent, 28% of the Moon is Illuminated
Dec 27
Waning Crescent
Jan 1
New
Jan 7
First Quarter
Jan 15
Full
Jan 24
Last Quarter

Hourly Weather History & Observations

Time (EST) Temp. Windchill Dew Point Humidity Pressure Visibility Wind Dir Wind Speed Gust Speed Precip Events Conditions
12:15 AM 33.8 °F 27.7 °F 26.6 °F 75% 30.30 in 10.0 mi WSW 6.9 mph - N/A   Clear
12:35 AM 33.8 °F 27.7 °F 26.6 °F 75% 30.30 in 10.0 mi WSW 6.9 mph - N/A   Clear
12:55 AM 33.8 °F 28.6 °F 24.8 °F 70% 30.30 in 10.0 mi West 5.8 mph - N/A   Clear
1:15 AM 33.8 °F 28.6 °F 26.6 °F 75% 30.31 in 10.0 mi West 5.8 mph - N/A   Clear
1:35 AM 33.8 °F 28.6 °F 26.6 °F 75% 30.32 in 10.0 mi West 5.8 mph - N/A   Clear
1:55 AM 33.8 °F 27.7 °F 24.8 °F 70% 30.33 in 10.0 mi West 6.9 mph - N/A   Clear
2:15 AM 33.8 °F 28.6 °F 24.8 °F 70% 30.33 in 10.0 mi West 5.8 mph - N/A   Clear
2:35 AM 33.8 °F 28.6 °F 24.8 °F 70% 30.34 in 10.0 mi West 5.8 mph - N/A   Clear
2:55 AM 33.8 °F 30.8 °F 24.8 °F 70% 30.33 in 10.0 mi West 3.5 mph - N/A   Clear
3:15 AM 33.8 °F 27.7 °F 24.8 °F 70% 30.33 in 10.0 mi West 6.9 mph - N/A   Clear
3:35 AM 33.8 °F 27.7 °F 24.8 °F 70% 30.32 in 10.0 mi West 6.9 mph - N/A   Clear
3:55 AM 33.8 °F 28.6 °F 24.8 °F 70% 30.32 in 10.0 mi West 5.8 mph - N/A   Clear
4:15 AM 33.8 °F 28.6 °F 24.8 °F 70% 30.32 in 10.0 mi West 5.8 mph - N/A   Clear
4:35 AM 33.8 °F 28.6 °F 23.0 °F 65% 30.33 in 10.0 mi West 5.8 mph - N/A   Clear
4:55 AM 33.8 °F 30.8 °F 21.2 °F 60% 30.34 in 10.0 mi West 3.5 mph - N/A   Clear
5:15 AM 33.8 °F 30.8 °F 21.2 °F 60% 30.34 in 10.0 mi West 3.5 mph - N/A   Clear
5:35 AM 33.8 °F 28.6 °F 21.2 °F 60% 30.34 in 10.0 mi West 5.8 mph - N/A   Clear
5:55 AM 33.8 °F 28.6 °F 19.4 °F 56% 30.35 in 10.0 mi West 5.8 mph - N/A   Clear
6:15 AM 33.8 °F 27.7 °F 21.2 °F 60% 30.35 in 10.0 mi WSW 6.9 mph - N/A   Clear
6:35 AM 33.8 °F 27.0 °F 21.2 °F 60% 30.35 in 10.0 mi West 8.1 mph - N/A   Clear
6:55 AM 33.8 °F 27.7 °F 21.2 °F 60% 30.36 in 10.0 mi West 6.9 mph - N/A   Clear
7:15 AM 33.8 °F 27.7 °F 21.2 °F 60% 30.36 in 10.0 mi WSW 6.9 mph - N/A   Clear
7:35 AM 33.8 °F 27.7 °F 21.2 °F 60% 30.37 in 10.0 mi West 6.9 mph - N/A   Clear
7:55 AM 33.8 °F 28.6 °F 21.2 °F 60% 30.36 in 10.0 mi West 5.8 mph - N/A   Clear
8:15 AM 33.8 °F 28.6 °F 21.2 °F 60% 30.37 in 10.0 mi West 5.8 mph - N/A   Clear
8:35 AM 33.8 °F 27.0 °F 21.2 °F 60% 30.38 in 10.0 mi West 8.1 mph - N/A   Clear
8:55 AM 33.8 °F 28.6 °F 21.2 °F 60% 30.38 in 10.0 mi West 5.8 mph - N/A   Clear
9:15 AM 35.6 °F 29.9 °F 21.2 °F 56% 30.38 in 10.0 mi WSW 6.9 mph - N/A   Clear
9:35 AM 35.6 °F 29.9 °F 21.2 °F 56% 30.38 in 10.0 mi West 6.9 mph - N/A   Clear
9:55 AM 35.6 °F 28.6 °F 21.2 °F 56% 30.38 in 10.0 mi WSW 9.2 mph - N/A   Mostly Cloudy
10:15 AM 35.6 °F 30.7 °F 21.2 °F 56% 30.37 in 10.0 mi WSW 5.8 mph - N/A   Overcast
10:35 AM 35.6 °F 29.2 °F 21.2 °F 56% 30.36 in 10.0 mi WSW 8.1 mph - N/A   Overcast
10:55 AM 35.6 °F 29.9 °F 21.2 °F 56% 30.36 in 10.0 mi WSW 6.9 mph - N/A   Overcast
11:15 AM 35.6 °F 29.2 °F 21.2 °F 56% 30.35 in 10.0 mi WSW 8.1 mph - N/A   Overcast
11:35 AM 37.4 °F 31.4 °F 21.2 °F 52% 30.35 in 10.0 mi WSW 8.1 mph - 0.01 in   Overcast
11:55 AM 37.4 °F 31.4 °F 21.2 °F 52% 30.33 in 10.0 mi WSW 8.1 mph - 0.01 in   Mostly Cloudy
12:15 PM 37.4 °F 29.3 °F 19.4 °F 48% 30.33 in 10.0 mi West 12.7 mph 33.4 mph 0.03 in   Overcast
12:35 PM 37.4 °F 30.3 °F 19.4 °F 48% 30.31 in 10.0 mi West 10.4 mph 19.6 mph 0.03 in   Overcast
12:55 PM 39.2 °F 31.6 °F 19.4 °F 45% 30.30 in 10.0 mi West 12.7 mph 36.8 mph 0.08 in   Overcast
1:15 PM 39.2 °F 33.0 °F 19.4 °F 45% 30.30 in 10.0 mi West 9.2 mph 21.9 mph N/A   Overcast
1:35 PM 39.2 °F 33.0 °F 21.2 °F 49% 30.30 in 10.0 mi West 9.2 mph 40.3 mph 0.12 in   Overcast
1:55 PM 39.2 °F 32.0 °F 19.4 °F 45% 30.29 in 10.0 mi West 11.5 mph 36.8 mph 0.16 in   Overcast
2:15 PM 41.0 °F 35.8 °F 19.4 °F 42% 30.28 in 10.0 mi West 8.1 mph - 0.04 in   Overcast
2:35 PM 41.0 °F 33.9 °F 21.2 °F 45% 30.28 in 10.0 mi West 12.7 mph 42.6 mph 0.08 in   Mostly Cloudy
2:55 PM 41.0 °F 33.5 °F 21.2 °F 45% 30.29 in 10.0 mi West 13.8 mph 35.7 mph 0.11 in   Overcast
3:15 PM 41.0 °F 34.7 °F 21.2 °F 45% 30.29 in 10.0 mi West 10.4 mph 18.4 mph N/A   Overcast
3:35 PM 42.8 °F 37.0 °F 23.0 °F 46% 30.29 in 10.0 mi West 10.4 mph 16.1 mph N/A   Overcast
3:55 PM 42.8 °F 37.0 °F 21.2 °F 42% 30.29 in 10.0 mi West 10.4 mph 23.0 mph N/A   Mostly Cloudy
4:15 PM 42.8 °F 36.6 °F 21.2 °F 42% 30.29 in 9.0 mi West 11.5 mph 20.7 mph N/A   Overcast
4:35 PM 41.0 °F 35.8 °F 23.0 °F 49% 30.29 in 10.0 mi West 8.1 mph - N/A   Scattered Clouds
4:55 PM 41.0 °F 36.4 °F 21.2 °F 45% 30.29 in 10.0 mi West 6.9 mph 20.7 mph N/A   Clear
5:15 PM 41.0 °F 36.4 °F 23.0 °F 49% 30.30 in 10.0 mi West 6.9 mph - N/A   Clear
5:35 PM 39.2 °F 35.0 °F 21.2 °F 49% 30.30 in 10.0 mi West 5.8 mph - 0.01 in   Clear
5:55 PM 39.2 °F 34.2 °F 23.0 °F 52% 30.31 in 10.0 mi West 6.9 mph - 0.01 in   Clear
6:15 PM 39.2 °F 35.9 °F 21.2 °F 49% 30.31 in 10.0 mi West 4.6 mph - N/A   Clear
6:35 PM 39.2 °F 37.0 °F 23.0 °F 52% 30.32 in 10.0 mi West 3.5 mph - N/A   Clear
6:55 PM 39.2 °F 34.2 °F 23.0 °F 52% 30.32 in 10.0 mi West 6.9 mph - N/A   Clear
7:15 PM 39.2 °F 35.0 °F 24.8 °F 56% 30.33 in 10.0 mi WSW 5.8 mph - N/A   Clear
7:35 PM 39.2 °F 35.0 °F 23.0 °F 52% 30.34 in 10.0 mi West 5.8 mph - N/A   Clear
7:55 PM 39.2 °F 35.0 °F 23.0 °F 52% 30.34 in 10.0 mi West 5.8 mph - N/A   Clear
8:15 PM 39.2 °F 35.0 °F 24.8 °F 56% 30.34 in 10.0 mi West 5.8 mph - N/A   Clear
8:35 PM 39.2 °F 35.9 °F 24.8 °F 56% 30.33 in 10.0 mi West 4.6 mph - N/A   Clear
8:55 PM 39.2 °F 35.9 °F 24.8 °F 56% 30.34 in 10.0 mi West 4.6 mph - N/A   Clear
9:15 PM 39.2 °F - 24.8 °F 56% 30.33 in 10.0 mi Calm Calm - N/A   Clear
9:35 PM 39.2 °F 34.2 °F 24.8 °F 56% 30.34 in 10.0 mi WSW 6.9 mph - N/A   Clear
9:55 PM 37.4 °F 32.1 °F 26.6 °F 65% 30.35 in 10.0 mi SW 6.9 mph - N/A   Clear
10:15 PM 37.4 °F 33.8 °F 26.6 °F 65% 30.34 in 10.0 mi WSW 4.6 mph - N/A   Clear
10:35 PM 37.4 °F 33.8 °F 26.6 °F 65% 30.33 in 10.0 mi WSW 4.6 mph - N/A   Clear
10:55 PM 37.4 °F 32.8 °F 28.4 °F 70% 30.33 in 10.0 mi WSW 5.8 mph - N/A   Clear
11:15 PM 37.4 °F 33.8 °F 26.6 °F 65% 30.32 in 10.0 mi WSW 4.6 mph - N/A   Clear
11:35 PM 37.4 °F 33.8 °F 26.6 °F 65% 30.32 in 10.0 mi WSW 4.6 mph - N/A   Clear
11:55 PM 37.4 °F 34.9 °F 28.4 °F 70% 30.31 in 10.0 mi WSW 3.5 mph - N/A   Clear